Time,TemperatureF,DewpointF,PressureIn,WindDirection,WindDirectionDegrees,WindSpeedMPH,WindSpeedGustMPH,Humidity,HourlyPrecipIn,Conditions,Clouds,dailyrainin,SoftwareType,DateUTC
2013-10-26 00:13:00,34.0,34.0,30.30,North,8,0.0,0.0,99,0.00,,,0.00,,2013-10-26 05:13:00,
2013-10-26 00:23:00,33.0,33.0,30.29,North,8,0.0,0.0,99,0.00,,,0.00,,2013-10-26 05:23:00,
2013-10-26 00:52:00,33.0,33.0,30.29,East,84,0.0,0.0,99,0.00,,,0.00,,2013-10-26 05:52:00,
2013-10-26 01:12:00,33.0,33.0,30.29,East,84,0.0,0.0,99,0.00,,,0.00,,2013-10-26 06:12:00,
2013-10-26 01:22:00,33.0,33.0,30.28,East,84,0.0,0.0,99,0.00,,,0.00,,2013-10-26 06:22:00,
2013-10-26 01:52:00,33.0,33.0,30.28,East,84,0.0,0.0,99,0.00,,,0.00,,2013-10-26 06:52:00,
2013-10-26 02:11:00,32.0,32.0,30.28,East,84,0.0,0.0,99,0.00,,,0.00,,2013-10-26 07:11:00,
2013-10-26 02:22:00,32.0,32.0,30.27,East,84,0.0,0.0,99,0.00,,,0.00,,2013-10-26 07:22:00,
2013-10-26 02:42:00,32.0,32.0,30.27,East,84,0.0,0.0,99,0.00,,,0.00,,2013-10-26 07:42:00,
2013-10-26 02:52:00,31.0,31.0,30.27,East,84,0.0,0.0,99,0.00,,,0.00,,2013-10-26 07:52:00,
2013-10-26 03:22:00,32.0,32.0,30.27,East,84,0.0,0.0,100,0.00,,,0.00,,2013-10-26 08:22:00,
2013-10-26 03:42:00,31.0,31.0,30.26,East,84,0.0,0.0,99,0.00,,,0.00,,2013-10-26 08:42:00,
2013-10-26 03:52:00,31.0,31.0,30.25,East,84,0.0,0.0,100,0.00,,,0.00,,2013-10-26 08:52:00,
2013-10-26 04:22:00,31.0,31.0,30.24,East,84,0.0,0.0,100,0.00,,,0.00,,2013-10-26 09:22:00,
2013-10-26 04:43:00,31.0,31.0,30.24,East,84,0.0,0.0,100,0.00,,,0.00,,2013-10-26 09:43:00,
2013-10-26 04:53:00,31.0,31.0,30.25,East,84,0.0,0.0,100,0.00,,,0.00,,2013-10-26 09:53:00,
2013-10-26 05:23:00,31.0,31.0,30.25,East,84,0.0,0.0,100,0.00,,,0.00,,2013-10-26 10:23:00,
2013-10-26 05:53:00,31.0,31.0,30.26,East,84,0.0,0.0,100,0.00,,,0.00,,2013-10-26 10:53:00,
2013-10-26 06:11:00,31.0,31.0,30.26,East,84,0.0,0.0,100,0.00,,,0.00,,2013-10-26 11:11:00,
2013-10-26 06:21:00,31.0,31.0,30.26,East,84,0.0,0.0,100,0.00,,,0.00,,2013-10-26 11:21:00,
2013-10-26 06:42:00,31.0,31.0,30.27,East,84,0.0,0.0,100,0.00,,,0.00,,2013-10-26 11:42:00,
2013-10-26 06:52:00,31.0,31.0,30.27,East,84,0.0,0.0,100,0.00,,,0.00,,2013-10-26 11:52:00,
2013-10-26 07:12:00,31.0,31.0,30.27,East,84,0.0,0.0,99,0.00,,,0.00,,2013-10-26 12:12:00,
2013-10-26 07:22:00,30.0,30.0,30.28,East,84,0.0,0.0,99,0.00,,,0.00,,2013-10-26 12:22:00,
2013-10-26 07:42:00,30.0,30.0,30.28,East,84,0.0,0.0,99,0.00,,,0.00,,2013-10-26 12:42:00,
2013-10-26 07:52:00,31.0,31.0,30.28,East,84,0.0,0.0,99,0.00,,,0.00,,2013-10-26 12:52:00,
2013-10-26 08:11:00,32.0,32.0,30.28,East,84,0.0,0.0,99,0.00,,,0.00,,2013-10-26 13:11:00,
2013-10-26 08:21:00,34.0,34.0,30.28,East,84,0.0,0.0,100,0.00,,,0.00,,2013-10-26 13:21:00,
2013-10-26 08:42:00,35.0,35.0,30.28,East,84,0.0,0.0,99,0.00,,,0.00,,2013-10-26 13:42:00,
2013-10-26 10:55:00,52.0,39.0,30.25,SW,225,1.0,9.0,62,0.00,,,0.00,,2013-10-26 15:55:00,
2013-10-26 11:24:00,54.0,40.0,30.24,WSW,248,0.0,8.0,58,0.00,,,0.00,,2013-10-26 16:24:00,
2013-10-26 11:44:00,55.0,39.0,30.24,WSW,239,6.0,9.0,54,0.00,,,0.00,,2013-10-26 16:44:00,
2013-10-26 11:54:00,56.0,40.0,30.23,WSW,243,5.0,9.0,54,0.00,,,0.00,,2013-10-26 16:54:00,
2013-10-26 12:12:00,57.0,40.0,30.23,WSW,256,2.0,11.0,52,0.00,,,0.00,,2013-10-26 17:12:00,
2013-10-26 12:23:00,57.0,38.0,30.22,WSW,250,3.0,10.0,49,0.00,,,0.00,,2013-10-26 17:23:00,
2013-10-26 12:52:00,60.0,39.0,30.20,South,172,2.0,7.0,45,0.00,,,0.00,,2013-10-26 17:52:00,
2013-10-26 13:12:00,60.0,37.0,30.20,West,270,5.0,12.0,43,0.00,,,0.00,,2013-10-26 18:12:00,
2013-10-26 13:22:00,61.0,38.0,30.19,SW,219,5.0,9.0,42,0.00,,,0.00,,2013-10-26 18:22:00,
2013-10-26 13:42:00,61.0,36.0,30.17,WSW,250,4.0,10.0,40,0.00,,,0.00,,2013-10-26 18:42:00,
2013-10-26 13:52:00,61.0,37.0,30.16,West,267,3.0,9.0,41,0.00,,,0.00,,2013-10-26 18:52:00,
2013-10-26 14:12:00,62.0,37.0,30.16,West,260,3.0,10.0,40,0.00,,,0.00,,2013-10-26 19:12:00,
2013-10-26 14:22:00,64.0,37.0,30.16,WNW,287,7.0,10.0,37,0.00,,,0.00,,2013-10-26 19:22:00,
2013-10-26 14:42:00,64.0,39.0,30.15,West,264,5.0,8.0,39,0.00,,,0.00,,2013-10-26 19:42:00,
2013-10-26 14:52:00,63.0,39.0,30.15,West,276,8.0,9.0,41,0.00,,,0.00,,2013-10-26 19:52:00,
2013-10-26 15:22:00,63.0,40.0,30.14,SW,222,7.0,7.0,43,0.00,,,0.00,,2013-10-26 20:22:00,
2013-10-26 15:43:00,63.0,41.0,30.13,WNW,287,1.0,9.0,45,0.00,,,0.00,,2013-10-26 20:43:00,
2013-10-26 15:52:00,63.0,41.0,30.13,WSW,249,4.0,6.0,45,0.00,,,0.00,,2013-10-26 20:52:00,
2013-10-26 16:22:00,63.0,42.0,30.12,WSW,248,2.0,8.0,47,0.00,,,0.00,,2013-10-26 21:22:00,
2013-10-26 17:14:00,63.0,44.0,30.11,SW,226,3.0,8.0,50,0.00,,,0.00,,2013-10-26 22:14:00,
2013-10-26 17:24:00,63.0,45.0,30.11,West,264,0.0,6.0,51,0.00,,,0.00,,2013-10-26 22:24:00,
2013-10-26 17:54:00,62.0,45.0,30.11,WSW,238,0.0,3.0,53,0.00,,,0.00,,2013-10-26 22:54:00,
2013-10-26 18:22:00,60.0,45.0,30.10,WSW,238,0.0,0.0,58,0.00,,,0.00,,2013-10-26 23:22:00,
2013-10-26 18:52:00,58.0,45.0,30.11,South,190,0.0,0.0,61,0.00,,,0.00,,2013-10-26 23:52:00,
2013-10-26 19:21:00,57.0,47.0,30.11,SSE,148,0.0,0.0,68,0.00,,,0.00,,2013-10-27 00:21:00,
2013-10-26 19:42:00,56.0,47.0,30.11,SSW,204,0.0,0.0,71,0.00,,,0.00,,2013-10-27 00:42:00,
2013-10-26 19:52:00,56.0,46.0,30.11,WNW,290,2.0,4.0,68,0.00,,,0.00,,2013-10-27 00:52:00,
2013-10-26 20:11:00,57.0,45.0,30.10,SSE,163,0.0,5.0,65,0.00,,,0.00,,2013-10-27 01:11:00,
2013-10-26 20:22:00,56.0,46.0,30.10,SE,136,0.0,0.0,68,0.00,,,0.00,,2013-10-27 01:22:00,
2013-10-26 20:52:00,54.0,46.0,30.11,North,8,0.0,0.0,75,0.00,,,0.00,,2013-10-27 01:52:00,
2013-10-26 21:12:00,53.0,45.0,30.12,North,8,0.0,0.0,75,0.00,,,0.00,,2013-10-27 02:12:00,
2013-10-26 21:21:00,52.0,46.0,30.12,SW,218,1.0,0.0,80,0.00,,,0.00,,2013-10-27 02:21:00,
2013-10-26 21:42:00,51.0,46.0,30.12,SW,218,0.0,0.0,82,0.00,,,0.00,,2013-10-27 02:42:00,
2013-10-26 21:52:00,50.0,45.0,30.12,SW,218,0.0,0.0,84,0.00,,,0.00,,2013-10-27 02:52:00,
2013-10-26 22:11:00,49.0,45.0,30.13,SW,218,0.0,0.0,87,0.00,,,0.00,,2013-10-27 03:11:00,
2013-10-26 22:22:00,49.0,45.0,30.13,SW,218,0.0,0.0,87,0.00,,,0.00,,2013-10-27 03:22:00,
2013-10-26 22:55:00,50.0,47.0,30.12,SW,218,0.0,0.0,88,0.00,,,0.00,,2013-10-27 03:55:00,
2013-10-26 23:02:00,-999.0,-99.9,30.12,SW,218,0.0,0.0,-999,-99.99,,,-99.99,,2013-10-27 04:02:00,
2013-10-26 23:24:00,50.0,47.0,30.12,South,188,0.0,0.0,88,0.00,,,0.00,,2013-10-27 04:24:00,
2013-10-26 23:54:00,50.0,47.0,30.10,South,188,0.0,0.0,88,0.00,,,0.00,,2013-10-27 04:54:00,